Regional Weather Roundup
Issued by NWS Midland/Odessa, TX

Skip options and go directly to product.
Home | Oldest Version | Previous Version | Current Version | All | Text Only | Save Text | Print | Product List | Glossary On

Skip product version selection by date and time.   
282
ASUS44 KMAF 230510
RWRMAF
MIDLAND AREA WEATHER ROUNDUP
NATIONAL WEATHER SERVICE MIDLAND TX
1100 PM CST MON DEC 22 2014

...IN SOUTHWEST TEXAS AND SOUTHEAST NEW MEXICO...

CITY           SKY/WX    TMP DP  RH WIND       PRES   REMARKS
ALPINE         CLOUDY    56  29  34 W20       29.79F
ANDREWS        CLOUDY    40  37  88 E15G21    29.75F WCI  32
ARTESIA        LGT RAIN  46  43  87 N22G30    29.75R WCI  38
BIG SPRING     CLOUDY    54  32  44 NE8       29.75R
CARLSBAD       TSTM      51  42  71 N16G32    29.73R
DRYDEN           N/A     55  33  43 CALM      29.63S
FORT STOCKTON  MOCLDY    58  31  35 SW13      29.65S
GUAD PASS      NOT AVBL
HOBBS          CLOUDY    39  39 100 E12       29.73F WCI  32
MARFA          CLOUDY    54  28  37 W5        29.79R
MIDLAND AIRPK  RAIN      50  35  57 N14       29.81R
MIDLAND INTL   LGT RAIN  47  36  65 N17G28    29.80R
ODESSA         LGT RAIN  46  37  71 N21G29    29.82R WCI  38
PECOS          CLOUDY    54  36  49 N30G44    29.72R
PRESIDIO       FAIR      55  31  41 N12       29.73R
SEMINOLE       CLOUDY    40  39  96 E7        29.75F WCI  36
SNYDER         CLOUDY    44  37  74 N18       29.74R WCI  36
WINK           CLOUDY    48  34  58 NE22G41   29.71R
$$
...OTHER STATIONS IN TEXAS...

CITY           SKY/WX    TMP DP  RH WIND       PRES   REMARKS
ABILENE        CLOUDY    50  35  56 SE5       29.74S
AMARILLO       MOCLDY    33  32  96 NW6       29.78S WCI  28
AUSTIN         CLOUDY    57  49  74 NE7       29.66F
BROWNSVILLE    PTCLDY    68  67  96 S12       29.64F
CORPUS CHRISTI PTCLDY    61  60  97 S7        29.63S FOG
DALLAS FTW     CLOUDY    50  42  74 NW10      29.70R
DEL RIO        MOCLDY    50  48  93 CALM      29.63R FOG
EL PASO        PTCLDY    57  35  43 W22G36    29.75R
HOUSTON INT    CLOUDY    60  59  96 CALM      29.69R
LUBBOCK        LGT RAIN  39  35  86 N12       29.78R WCI  32
SAN ANGELO     CLOUDY    54  38  54 NE13      29.68S
SAN ANTONIO    MOCLDY    57  53  86 SE5       29.65F
WACO           CLOUDY    53  44  71 NE3       29.68R
WICHITA FALLS  NOT AVBL
$$
...OTHER LOCATIONS IN NEW MEXICO...

CITY           SKY/WX    TMP DP  RH WIND       PRES   REMARKS
ALAMAGORDO     PTCLDY    54  34  47 N20G26    29.76R
ALBUQUERQUE    PTCLDY    44  23  43 N14G33    29.80R WCI  37
CANNON AFB     LGT SNOW  33  32  97 CALM      29.79R FOG
CLOVIS         CLOUDY    34  30  86 S5        29.79R WCI  30
HOLLOMAN AFB   PTCLDY    52  36  53 N14       29.74R
ROSWELL        LGT RAIN  45  38  76 N17G25    29.77R WCI  38
RUIDOSO        MOCLDY    37  32  81 NW13G26   29.81R WCI  29
SANTA FE       LGT SNOW  30  27  88 W9        29.80R VSB 1   WCI  22
TRUTH OR CONSE CLEAR     54  30  40 W15       29.76F
TUCUMCARI      CLOUDY    34  32  92 NW6       29.79R WCI  29
$$

USA.gov is the U.S. government's official web portal to all federal, state and local government web resources and services.